FW1098 Weather Reports


time (UTC)temp
F
wind
direction
speed
knots
gust
knots
rain 1hr
in
rain 24hr
in
rain mn
in
humidity
%
barometer
mb
20260508043030 64 259 0.0 0.9 0.00 0.73 0.00 84 1013.7
20260508041520 64 259 0.0 1.7 0.00 0.73 0.00 83 1013.5
20260508040016 65 259 0.0 1.7 0.00 0.88 0.73 81 1013.5
20260508034523 66 257 0.0 3.5 0.00 0.88 0.73 80 1013.3
20260508033014 66 189 0.0 5.2 0.00 0.88 0.73 80 1013.3
20260508031513 67 238 0.9 5.2 0.00 0.88 0.73 80 1013.3
20260508030013 67 248 2.6 8.7 0.00 1.22 0.73 80 1013.0
20260508024518 68 217 0.9 7.8 0.00 1.22 0.73 80 1012.8
20260508023013 68 246 1.7 7.8 0.00 1.22 0.73 81 1012.7
20260508021511 68 211 2.6 5.2 0.00 1.22 0.73 81 1012.4
20260508020013 69 211 0.9 2.6 0.00 1.22 0.73 82 1012.0
20260508014510 69 311 0.9 4.3 0.00 1.22 0.73 82 1011.7
20260508013009 69 321 0.9 4.3 0.00 1.22 0.73 82 1011.3
20260508011509 70 276 0.0 2.6 0.00 1.22 0.73 82 1011.0
20260508010020 71 276 0.0 2.6 0.00 1.22 0.73 80 1010.8
20260508004507 71 259 0.0 4.3 0.00 1.22 0.73 80 1010.6
20260508003006 71 201 0.9 4.3 0.00 1.22 0.73 79 1010.0
20260508001508 73 229 0.0 2.6 0.00 1.22 0.73 78 1009.8
20260508000007 73 229 0.0 2.6 0.00 1.22 0.73 77 1009.5
20260507234513 74 286 0.9 6.1 0.00 1.22 0.73 75 1009.1
20260507233005 75 255 2.6 7.8 0.00 1.22 0.73 74 1009.0
20260507231504 76 223 0.0 6.1 0.00 1.22 0.73 76 1009.0
20260507230004 76 156 2.6 11.3 0.00 1.22 0.73 75 1008.8
20260507224508 76 188 1.7 13.0 0.00 1.22 0.73 75 1008.9
20260507223003 77 255 3.5 8.7 0.00 1.22 0.73 74 1008.9
20260507221502 77 217 1.7 7.0 0.00 1.22 0.73 73 1008.7
20260507220001 77 211 1.7 7.8 0.00 1.22 0.73 74 1008.7
20260507214501 78 290 3.5 7.8 0.00 1.22 0.73 72 1008.7
20260507213102 77 168 2.6 9.6 0.00 1.22 0.73 73 1008.7
20260507211606 78 240 0.9 7.0 0.00 1.22 0.73 75 1008.7
20260507210058 77 244 2.6 7.0 0.00 1.22 0.73 76 1008.7
20260507204557 75 248 0.0 6.1 0.00 1.22 0.73 81 1009.0
20260507203055 74 254 1.7 6.1 0.00 1.22 0.73 81 1009.2
20260507201556 74 20 1.7 7.0 0.00 1.22 0.73 81 1009.2
20260507200055 75 275 0.9 3.5 0.00 1.22 0.73 81 1009.3
20260507194554 75 236 1.7 8.7 0.00 1.22 0.73 80 1009.2
20260507193058 77 296 3.5 7.0 0.00 1.22 0.73 78 1009.0
20260507191551 75 343 1.7 5.2 0.00 1.22 0.73 82 1008.9
20260507190050 75 236 2.6 6.1 0.00 1.22 0.73 84 1008.9
20260507184550 75 303 0.9 5.2 0.00 1.22 0.73 84 1008.8
20260507183045 74 161 2.6 7.0 0.00 1.22 0.73 87 1009.1
20260507181542 73 304 1.7 8.7 0.00 1.22 0.73 89 1009.2
20260507180040 72 272 1.7 6.1 0.00 1.22 0.73 93 1009.2
20260507174549 71 265 0.0 3.5 0.01 1.22 0.73 94 1009.1
20260507173036 70 242 0.0 3.5 0.01 1.22 0.73 94 1009.3
20260507171547 70 286 0.0 1.7 0.01 1.22 0.73 95 1009.1
20260507170033 70 286 0.9 6.1 0.02 1.22 0.73 96 1009.3
20260507164536 69 279 0.0 2.6 0.03 1.21 0.72 97 1009.9
20260507163031 68 279 0.9 5.2 0.03 1.21 0.72 97 1010.1
20260507161535 69 227 0.0 0.9 0.03 1.21 0.72 98 1010.3
20260507160030 68 227 0.0 0.0 0.05 1.19 0.70 98 1010.7
20260507154527 68 227 0.0 0.0 0.25 1.18 0.69 98 1010.2
20260507153027 67 227 0.0 0.0 0.50 1.18 0.69 97 1010.1
20260507151522 67 227 0.0 3.5 0.51 1.18 0.69 97 1010.4
20260507150021 67 260 0.0 2.6 0.47 1.13 0.65 97 1010.8
20260507144521 67 274 0.9 3.5 0.22 0.89 0.40 97 1010.7
20260507143019 67 5 0.0 6.1 0.02 0.68 0.19 97 1009.6
20260507141518 67 287 0.9 3.5 0.01 0.67 0.18 97 1009.6
20260507140032 67 305 0.0 2.6 0.01 0.67 0.18 97 1009.6
20260507134516 67 55 1.7 9.6 0.01 0.67 0.18 97 1010.0
20260507133015 67 257 0.9 4.3 0.00 0.66 0.17 97 1010.0
20260507131522 67 294 0.0 4.3 0.00 0.66 0.17 97 1010.1
20260507130014 67 270 0.0 1.7 0.00 0.66 0.17 97 1010.6
20260507124514 67 82 0.0 1.7 0.00 0.66 0.17 97 1010.4
20260507123013 66 82 0.0 1.7 0.00 0.66 0.17 97 1009.7
20260507121510 66 82 0.0 0.9 0.00 0.66 0.17 97 1009.5
20260507120022 66 82 0.0 0.0 0.03 0.66 0.17 97 1009.6
20260507114508 66 82 0.0 0.9 0.06 0.66 0.17 97 1009.4
20260507113005 66 267 0.0 0.0 0.08 0.66 0.17 97 1009.6
20260507111602 66 267 0.0 2.6 0.11 0.66 0.17 97 1010.6
20260507110103 66 221 0.0 1.7 0.09 0.63 0.14 97 1011.9
20260507104611 66 221 0.0 1.7 0.07 0.60 0.11 97 1011.2
20260507103058 66 221 0.0 1.7 0.05 0.57 0.09 97 1011.5
20260507101557 66 252 0.0 1.7 0.02 0.55 0.06 97 1011.3
20260507100100 66 252 0.0 1.7 0.02 0.54 0.05 97 1011.3
20260507094606 66 257 0.0 1.7 0.02 0.53 0.04 97 1011.0
20260507093054 66 355 1.7 5.2 0.02 0.53 0.04 96 1011.4
20260507091554 66 138 0.9 4.3 0.02 0.53 0.04 96 1011.9
20260507090052 66 202 0.0 1.7 0.01 0.52 0.03 96 1011.7
20260507084559 66 202 0.0 0.9 0.01 0.51 0.02 96 1011.7
20260507083052 66 202 0.0 0.9 0.01 0.51 0.02 96 1011.8
20260507081551 66 202 0.0 0.9 0.01 0.51 0.02 96 1011.2
20260507080053 66 202 0.0 0.0 0.01 0.51 0.02 96 1011.3
20260507074551 66 202 0.0 0.0 0.00 0.50 0.01 96 1011.7
20260507073048 66 202 0.0 0.0 0.00 0.50 0.01 95 1011.6
20260507071548 66 202 0.0 0.9 0.00 0.50 0.01 95 1011.9
20260507064548 66 202 0.0 0.0 0.00 0.50 0.01 95 1011.7
20260507063052 66 202 0.0 0.0 0.00 0.50 0.01 95 1011.6
20260507061545 66 202 0.0 0.9 0.00 0.50 0.01 94 1011.9
20260507060049 66 202 0.0 0.9 0.00 0.50 0.01 94 1011.6
20260507054544 66 202 0.0 0.0 0.00 0.50 0.01 94 1011.7
20260507053040 67 202 0.0 0.0 0.00 0.50 0.01 94 1012.0
20260507051539 67 202 0.9 1.7 0.00 0.50 0.01 94 1012.8
20260507050059 67 202 0.0 0.0 0.01 0.50 0.01 94 1012.7
20260507044546 67 202 0.0 1.7 0.03 0.50 0.01 93 1013.2